G6UIM Weather Reports


time (UTC)temp
F
wind
direction
speed
knots
gust
knots
rain 1hr
in
rain 24hr
in
rain mn
in
humidity
%
barometer
mb
20260510175516 56 23 4.3 10.4 0.00 0.00 0.00 71 1014.7
20260510174516 56 45 5.2 11.3 0.00 0.00 0.00 71 1014.7
20260510173515 56 45 4.3 10.4 0.00 0.00 0.00 71 1014.8
20260510172516 56 45 5.2 10.4 0.00 0.00 0.00 70 1014.8
20260510171516 57 23 5.2 12.2 0.00 0.00 0.00 71 1014.9
20260510170516 57 45 4.3 9.6 0.00 0.00 0.00 70 1014.9
20260510165516 57 0 5.2 11.3 0.00 0.00 0.00 69 1014.9
20260510164516 57 23 3.5 9.6 0.00 0.00 0.00 71 1014.9
20260510163516 58 23 4.3 11.3 0.00 0.00 0.00 69 1014.7
20260510162516 58 0 3.5 9.6 0.00 0.00 0.00 69 1014.8
20260510161516 59 45 3.5 8.7 0.00 0.00 0.00 70 1014.9
20260510160516 58 0 3.5 9.6 0.00 0.00 0.00 70 1014.8
20260510155536 59 0 3.5 7.0 0.00 0.00 0.00 69 1014.8
20260510154516 59 0 5.2 10.4 0.00 0.00 0.00 68 1014.8
20260510153515 59 23 3.5 8.7 0.00 0.00 0.00 69 1014.9
20260510152515 60 23 4.3 10.4 0.00 0.00 0.00 68 1014.9
20260510151556 60 23 5.2 11.3 0.00 0.00 0.00 68 1014.9
20260510150516 60 0 4.3 11.3 0.00 0.00 0.00 68 1015.1
20260510145515 60 0 3.5 7.8 0.00 0.00 0.00 68 1015.1
20260510144515 60 0 3.5 11.3 0.00 0.00 0.00 69 1015.2
20260510143536 60 338 4.3 9.6 0.00 0.00 0.00 69 1015.3
20260510142516 60 0 3.5 9.6 0.00 0.00 0.00 67 1015.5
20260510141515 61 0 2.6 7.8 0.00 0.00 0.00 68 1015.6
20260510140515 61 0 3.5 10.4 0.00 0.00 0.00 67 1015.6
20260510135515 61 0 2.6 7.0 0.00 0.00 0.00 66 1015.6
20260510134515 61 0 2.6 7.8 0.00 0.00 0.00 65 1015.6
20260510133515 60 0 3.5 7.8 0.00 0.00 0.00 67 1015.5
20260510132536 60 23 2.6 7.0 0.00 0.00 0.00 67 1015.5
20260510131515 60 23 4.3 9.6 0.00 0.00 0.00 67 1015.4
20260510130517 60 23 3.5 9.6 0.00 0.00 0.00 68 1015.6
20260510125517 60 0 3.5 7.8 0.00 0.00 0.00 68 1015.8
20260510124517 59 0 3.5 10.4 0.00 0.00 0.00 68 1016.0
20260510123537 60 0 2.6 7.8 0.00 0.00 0.00 68 1016.0
20260510122517 60 0 3.5 9.6 0.00 0.00 0.00 68 1016.2
20260510121517 59 0 4.3 9.6 0.00 0.00 0.00 70 1016.3
20260510120517 60 0 3.5 7.8 0.00 0.00 0.00 70 1016.4
20260510115517 59 23 3.5 8.7 0.00 0.00 0.00 70 1016.4
20260510114517 59 0 3.5 11.3 0.00 0.00 0.00 69 1016.3
20260510113537 60 23 2.6 7.8 0.00 0.00 0.00 70 1016.7
20260510112517 59 0 3.5 8.7 0.00 0.00 0.00 69 1016.6
20260510111517 59 23 3.5 7.8 0.00 0.00 0.00 69 1016.8
20260510110517 58 338 4.3 9.6 0.00 0.00 0.00 69 1016.7
20260510105537 59 0 4.3 9.6 0.00 0.00 0.00 68 1016.7
20260510104537 58 0 4.3 10.4 0.00 0.00 0.00 70 1016.7
20260510103518 58 0 4.3 9.6 0.00 0.00 0.00 68 1016.7
20260510102517 58 0 3.5 9.6 0.00 0.00 0.00 71 1016.8
20260510101517 58 0 3.5 10.4 0.00 0.00 0.00 70 1016.7
20260510100537 57 45 4.3 13.0 0.00 0.00 0.00 71 1016.7
20260510095537 57 23 5.2 10.4 0.00 0.00 0.00 70 1016.7
20260510094517 57 0 4.3 11.3 0.00 0.00 0.00 71 1016.6
20260510093537 57 0 4.3 11.3 0.00 0.00 0.00 71 1016.7
20260510092517 57 0 3.5 7.8 0.00 0.00 0.00 71 1016.8
20260510091517 56 0 5.2 9.6 0.00 0.00 0.00 71 1016.9
20260510090517 56 0 3.5 11.3 0.00 0.00 0.00 72 1017.0
20260510085537 55 23 5.2 9.6 0.00 0.00 0.00 72 1017.1
20260510084517 55 45 4.3 8.7 0.00 0.00 0.00 72 1017.2
20260510083517 55 0 4.3 12.2 0.00 0.00 0.00 74 1017.2
20260510082517 54 0 4.3 8.7 0.00 0.00 0.00 76 1017.3
20260510081537 53 23 4.3 13.0 0.00 0.00 0.00 77 1017.3
20260510080537 53 23 3.5 7.8 0.00 0.00 0.00 77 1017.2
20260510075517 53 23 4.3 9.6 0.00 0.00 0.00 76 1017.3
20260510074517 54 0 3.5 11.3 0.00 0.00 0.00 75 1017.3
20260510073517 54 0 4.3 10.4 0.00 0.00 0.00 76 1017.2
20260510072517 54 338 3.5 7.8 0.00 0.00 0.00 76 1017.2
20260510071517 54 0 3.5 7.8 0.00 0.00 0.00 77 1017.1
20260510070517 53 45 3.5 7.8 0.00 0.00 0.00 78 1017.0
20260510065517 53 23 3.5 9.6 0.00 0.00 0.00 78 1017.0
20260510064537 52 23 3.5 8.7 0.00 0.00 0.00 79 1016.8
20260510063517 51 45 3.5 7.0 0.00 0.00 0.00 79 1016.7
20260510062517 50 23 3.5 9.6 0.00 0.00 0.00 80 1016.8
20260510061517 50 45 3.5 9.6 0.00 0.00 0.00 80 1016.6
20260510060517 50 23 4.3 11.3 0.00 0.00 0.00 80 1016.5
20260510055537 50 23 4.3 12.2 0.00 0.00 0.00 80 1016.5
20260510054517 50 45 4.3 11.3 0.00 0.00 0.00 79 1016.4
20260510053537 50 45 5.2 11.3 0.00 0.00 0.00 79 1016.4
20260510052537 51 45 5.2 10.4 0.00 0.00 0.00 78 1016.4
20260510051537 51 45 4.3 10.4 0.00 0.00 0.00 78 1016.5
20260510050537 51 23 4.3 9.6 0.00 0.00 0.00 77 1016.5
20260510045517 51 45 5.2 9.6 0.00 0.00 0.00 77 1016.5
20260510044536 51 45 3.5 8.7 0.00 0.00 0.00 76 1016.5
20260510043517 51 23 4.3 8.7 0.00 0.00 0.00 76 1016.6
20260510042517 52 23 3.5 9.6 0.00 0.00 0.00 75 1016.6
20260510041516 52 45 4.3 10.4 0.00 0.00 0.00 74 1016.5
20260510040517 53 0 4.3 8.7 0.00 0.00 0.00 73 1016.5
20260510035516 53 0 3.5 8.7 0.00 0.00 0.00 73 1016.6
20260510034517 53 23 4.3 11.3 0.00 0.00 0.00 73 1016.7
20260510033516 54 0 4.3 11.3 0.00 0.00 0.00 72 1016.7
20260510032516 54 23 3.5 8.7 0.00 0.00 0.00 72 1016.9
20260510031517 55 23 3.5 9.6 0.00 0.00 0.00 73 1016.8
20260510030516 55 0 5.2 11.3 0.00 0.00 0.00 72 1016.7
20260510025536 55 0 3.5 8.7 0.00 0.00 0.00 73 1016.8
20260510024516 56 0 4.3 9.6 0.00 0.00 0.00 72 1017.0
20260510023516 56 0 2.6 7.0 0.00 0.00 0.00 73 1017.0
20260510022516 56 23 2.6 7.8 0.00 0.00 0.00 71 1017.0
20260510021517 56 23 3.5 8.7 0.00 0.00 0.00 71 1016.9
20260510020517 57 0 2.6 7.8 0.00 0.00 0.00 72 1017.0
20260510015516 57 0 3.5 7.8 0.00 0.00 0.00 71 1017.0
20260510014516 57 0 2.6 8.7 0.00 0.00 0.00 72 1017.0
20260510013516 57 23 3.5 8.7 0.00 0.00 0.00 72 1016.9
20260510012516 57 23 3.5 8.7 0.00 0.00 0.00 72 1017.1
20260510011536 58 0 2.6 7.0 0.00 0.00 0.00 71 1017.1
20260510010516 58 23 3.5 10.4 0.00 0.00 0.00 72 1017.1
20260510005517 58 45 3.5 8.7 0.00 0.00 0.00 74 1017.1
20260510004516 58 23 3.5 10.4 0.00 0.00 0.00 76 1017.2
20260510003516 58 23 3.5 8.7 0.00 0.00 0.00 77 1017.3
20260510002516 58 23 3.5 8.7 0.00 0.00 0.00 77 1017.1
20260510001516 58 23 2.6 9.6 0.00 0.00 0.00 76 1017.3
20260510000536 58 23 3.5 8.7 0.00 0.00 0.00 77 1017.2
20260509235516 58 45 3.5 9.6 0.00 0.00 0.00 77 1017.2
20260509234517 58 45 4.3 9.6 0.00 0.00 0.00 77 1017.1
20260509233516 59 45 3.5 7.0 0.00 0.00 0.00 77 1017.1
20260509232017 59 45 2.6 7.0 0.00 0.00 0.00 76 1017.1
20260509231017 59 45 2.6 7.8 0.00 0.00 0.00 75 1017.1
20260509230017 59 45 2.6 6.1 0.00 0.00 0.00 75 1016.9
20260509225057 59 45 2.6 5.2 0.00 0.00 0.00 74 1016.8
20260509224017 60 45 1.7 6.1 0.00 0.00 0.00 73 1016.9
20260509223016 60 45 2.6 5.2 0.00 0.00 0.00 71 1016.8
20260509222016 60 45 2.6 5.2 0.00 0.00 0.00 70 1016.8
20260509221016 60 45 4.3 8.7 0.00 0.00 0.00 69 1016.8
20260509220037 61 45 3.5 9.6 0.00 0.00 0.00 68 1016.7
20260509215016 61 45 2.6 6.1 0.00 0.00 0.00 68 1016.9
20260509214036 61 68 2.6 7.8 0.00 0.00 0.00 68 1016.9
20260509213037 60 45 2.6 5.2 0.00 0.00 0.00 69 1016.6
20260509212017 60 68 0.9 5.2 0.00 0.00 0.00 70 1016.5
20260509211017 60 0.0 0.0 0.00 0.00 0.00 70 1016.6
20260509210016 60 0.0 0.0 0.00 0.00 0.00 69 1016.6
20260509205016 59 0.0 0.0 0.00 0.00 0.00 69 1016.5
20260509204057 59 0.0 0.0 0.00 0.00 0.00 69 1016.4
20260509203036 59 0.0 0.0 0.00 0.00 0.00 69 1016.5
20260509202017 60 0.0 0.0 0.00 0.00 0.00 69 1016.4
20260509201016 60 0.0 0.0 0.00 0.00 0.00 69 1016.5
20260509200016 60 0.0 0.0 0.00 0.00 0.00 69 1016.5
20260509195016 60 0.0 0.0 0.00 0.00 0.00 68 1016.5
20260509194016 60 0.0 0.0 0.00 0.00 0.00 68 1016.6
20260509193017 61 0.0 0.0 0.00 0.00 0.00 68 1016.5
20260509192017 61 0.0 0.0 0.00 0.00 0.00 67 1016.6
20260509191017 61 0.0 0.0 0.00 0.00 0.00 67 1016.5
20260509190017 61 0.0 0.0 0.00 0.00 0.00 66 1016.4
20260509185016 61 0.0 0.0 0.00 0.00 0.00 65 1016.4
20260509184036 61 0.0 0.0 0.00 0.00 0.00 65 1016.4
20260509183036 62 0.0 0.0 0.00 0.00 0.00 65 1016.4
20260509182016 62 0.0 0.0 0.00 0.00 0.00 65 1016.4
20260509181016 62 0.0 0.0 0.00 0.00 0.00 65 1016.5
20260509180016 62 0.0 0.0 0.00 0.00 0.00 65 1016.4